• Em Portugal
  • Lista de países
  • Para 7 dias
  • Temperatura da água
  • Mapas de satélite
  • Mapa do tempo
  • Widgets de tempo
  • user-avatar
    Iniciar Sessão

    Previsão horária em Yakubovo

    Hoje, 12 Novembro, Segunda-feira

    Tempo Temperatura Precipitação Vento Pressão Humidade
    00:00 -4°C° 0 mm 7 m/s 759 mmHg 72%
    01:00 -4°C° 0 mm 7 m/s 759 mmHg 71%
    02:00 -4°C° 0 mm 5 m/s 759 mmHg 77%
    03:00 -4°C° 0 mm 5 m/s 759 mmHg 76%
    04:00 -4°C° 0 mm 6 m/s 759 mmHg 75%
    05:00 -4°C° 0 mm 7 m/s 759 mmHg 74%
    06:00 -4°C° 0 mm 7 m/s 759 mmHg 72%
    07:00 -6°C° 0 mm 7 m/s 759 mmHg 71%
    08:00 -6°C° 0 mm 7 m/s 759 mmHg 68%
    09:00 -4°C° 0 mm 7 m/s 759 mmHg 65%
    10:00 -4°C° 0 mm 7 m/s 760 mmHg 61%
    11:00 -4°C° 0 mm 7 m/s 760 mmHg 58%
    12:00 -3°C° 0 mm 7 m/s 760 mmHg 57%
    13:00 -3°C° 0 mm 7 m/s 760 mmHg 56%
    14:00 -3°C° 0 mm 6 m/s 760 mmHg 56%
    15:00 -3°C° 0 mm 6 m/s 760 mmHg 56%
    16:00 -4°C° 0 mm 6 m/s 760 mmHg 57%
    17:00 -4°C° 0 mm 6 m/s 759 mmHg 57%
    18:00 -4°C° 0 mm 6 m/s 760 mmHg 56%
    19:00 -4°C° 0 mm 6 m/s 760 mmHg 55%
    20:00 -6°C° 0 mm 7 m/s 760 mmHg 54%
    21:00 -6°C° 0 mm 7 m/s 760 mmHg 54%
    22:00 -6°C° 0 mm 7 m/s 760 mmHg 54%
    23:00 -6°C° 0 mm 7 m/s 760 mmHg 53%

    Amanhã, 13 Novembro, Terça-feira

    Tempo Temperatura Precipitação Vento Pressão Humidade
    00:00 -6°C° 0 mm 7 m/s 760 mmHg 53%
    01:00 -6°C° 0 mm 7 m/s 760 mmHg 53%
    02:00 -6°C° 0 mm 7 m/s 759 mmHg 53%
    03:00 -6°C° 0 mm 7 m/s 759 mmHg 53%
    04:00 -6°C° 0 mm 7 m/s 759 mmHg 53%
    05:00 -6°C° 0 mm 7 m/s 759 mmHg 53%
    06:00 -6°C° 0 mm 7 m/s 758 mmHg 52%
    07:00 -6°C° 0 mm 7 m/s 758 mmHg 52%
    08:00 -6°C° 0 mm 7 m/s 758 mmHg 52%
    09:00 -4°C° 0 mm 7 m/s 758 mmHg 50%
    10:00 -5°C° 0 mm 8 m/s 758 mmHg 48%
    11:00 -4°C° 0 mm 8 m/s 757 mmHg 46%
    12:00 -4°C° 0 mm 8 m/s 757 mmHg 45%
    13:00 -2°C° 0 mm 8 m/s 757 mmHg 44%
    14:00 -2°C° 0 mm 7 m/s 756 mmHg 44%
    15:00 -2°C° 0 mm 7 m/s 756 mmHg 45%
    16:00 -3°C° 0 mm 7 m/s 755 mmHg 45%
    17:00 -3°C° 0 mm 7 m/s 755 mmHg 46%
    18:00 -3°C° 0 mm 7 m/s 755 mmHg 47%
    19:00 -4°C° 0 mm 7 m/s 754 mmHg 47%
    20:00 -4°C° 0 mm 7 m/s 754 mmHg 48%
    21:00 -4°C° 0 mm 7 m/s 753 mmHg 49%
    22:00 -4°C° 0 mm 7 m/s 753 mmHg 50%
    23:00 -4°C° 0 mm 7 m/s 753 mmHg 51%

    Depois de amanhã, 14 Novembro, Quarta-feira

    Tempo Temperatura Precipitação Vento Pressão Humidade
    00:00 -5°C° 0 mm 8 m/s 752 mmHg 52%
    01:00 -5°C° 0 mm 8 m/s 751 mmHg 53%
    02:00 -5°C° 0 mm 8 m/s 751 mmHg 54%
    03:00 -5°C° 0.1 mm 8 m/s 750 mmHg 56%
    04:00 -5°C° 0.1 mm 8 m/s 749 mmHg 59%
    05:00 -4°C° 0.1 mm 7 m/s 749 mmHg 61%
    06:00 -4°C° 0.7 mm 7 m/s 748 mmHg 68%
    07:00 -6°C° 0.7 mm 7 m/s 748 mmHg 75%
    08:00 -6°C° 0.7 mm 7 m/s 748 mmHg 81%
    09:00 -6°C° 0.8 mm 7 m/s 748 mmHg 84%
    10:00 -6°C° 0.8 mm 7 m/s 748 mmHg 87%
    11:00 -6°C° 0.8 mm 7 m/s 747 mmHg 90%
    12:00 -5°C° 0.4 mm 6 m/s 747 mmHg 91%
    13:00 -4°C° 0.4 mm 6 m/s 747 mmHg 92%
    14:00 -4°C° 0.4 mm 6 m/s 747 mmHg 92%
    15:00 -4°C° 0.1 mm 5 m/s 747 mmHg 92%
    16:00 -4°C° 0.1 mm 5 m/s 747 mmHg 93%
    17:00 -4°C° 0.1 mm 5 m/s 747 mmHg 93%
    18:00 -4°C° 0.1 mm 5 m/s 748 mmHg 93%
    19:00 -3°C° 0.1 mm 4 m/s 748 mmHg 93%
    20:00 -2°C° 0.1 mm 4 m/s 748 mmHg 94%
    21:00 -2°C° 0 mm 4 m/s 749 mmHg 94%
    22:00 -1°C° 0 mm 3 m/s 749 mmHg 94%
    23:00 -1°C° 0 mm 3 m/s 750 mmHg 94%

    15 Novembro, Quinta-feira

    Tempo Temperatura Precipitação Vento Pressão Humidade
    00:00 -1°C° 0 mm 3 m/s 750 mmHg 94%
    01:00 -1°C° 0 mm 2 m/s 751 mmHg 95%
    02:00 -1°C° 0 mm 2 m/s 751 mmHg 95%
    03:00 -1°C° 0 mm 2 m/s 752 mmHg 95%
    04:00 -1°C° 0 mm 2 m/s 752 mmHg 95%
    05:00 -1°C° 0 mm 2 m/s 753 mmHg 95%
    06:00 -1°C° 0 mm 2 m/s 753 mmHg 95%
    07:00 -1°C° 0 mm 2 m/s 754 mmHg 95%
    08:00 -1°C° 0 mm 2 m/s 755 mmHg 95%
    09:00 +1°C° 0 mm 1 m/s 755 mmHg 95%
    10:00 +1°C° 0 mm 1 m/s 756 mmHg 95%
    11:00 +2°C° 0 mm 1 m/s 757 mmHg 96%
    12:00 +2°C° 0 mm 1 m/s 757 mmHg 96%
    13:00 +2°C° 0 mm 1 m/s 757 mmHg 97%
    14:00 +2°C° 0 mm 1 m/s 757 mmHg 97%
    15:00 +2°C° 0 mm 1 m/s 758 mmHg 97%
    16:00 +2°C° 0 mm 1 m/s 758 mmHg 97%
    17:00 +2°C° 0 mm 1 m/s 759 mmHg 96%
    18:00 +2°C° 0 mm 1 m/s 759 mmHg 96%
    19:00 +1°C° 0 mm 1 m/s 759 mmHg 96%
    20:00 +1°C° 0 mm 1 m/s 760 mmHg 95%
    21:00 +1°C° 0 mm 1 m/s 760 mmHg 95%
    22:00 +1°C° 0 mm 1 m/s 760 mmHg 95%
    23:00 +1°C° 0 mm 1 m/s 760 mmHg 95%

    16 Novembro, Sexta-feira

    Tempo Temperatura Precipitação Vento Pressão Humidade
    00:00 +1°C° 0 mm 1 m/s 761 mmHg 95%
    01:00 +1°C° 0 mm 1 m/s 761 mmHg 95%
    02:00 0°C° 0 mm 1 m/s 761 mmHg 95%
    03:00 0°C° 0 mm 1 m/s 761 mmHg 94%
    04:00 -1°C° 0 mm 0 m/s 762 mmHg 94%
    05:00 -1°C° 0 mm 0 m/s 762 mmHg 94%
    06:00 -1°C° 0 mm 0 m/s 762 mmHg 94%
    07:00 -1°C° 0 mm 0 m/s 762 mmHg 94%
    08:00 -1°C° 0 mm 0 m/s 762 mmHg 94%
    09:00 0°C° 0 mm 0 m/s 763 mmHg 93%
    10:00 0°C° 0 mm 0 m/s 763 mmHg 92%
    11:00 +1°C° 0 mm 0 m/s 763 mmHg 92%
    12:00 +1°C° 0 mm 0 m/s 763 mmHg 92%
    13:00 +1°C° 0 mm 0 m/s 763 mmHg 93%
    14:00 +1°C° 0 mm 0 m/s 763 mmHg 93%
    15:00 +2°C° 0 mm 1 m/s 763 mmHg 93%
    16:00 +1°C° 0 mm 1 m/s 763 mmHg 93%
    17:00 +1°C° 0 mm 1 m/s 763 mmHg 93%
    18:00 +1°C° 0 mm 1 m/s 763 mmHg 93%
    19:00 +1°C° 0 mm 1 m/s 763 mmHg 93%
    20:00 +1°C° 0 mm 1 m/s 763 mmHg 92%
    21:00 +1°C° 0 mm 1 m/s 763 mmHg 92%
    22:00 +1°C° 0 mm 1 m/s 763 mmHg 92%
    23:00 0°C° 0 mm 0 m/s 764 mmHg 92%

    17 Novembro, Sábado

    Tempo Temperatura Precipitação Vento Pressão Humidade
    00:00 +1°C° 0 mm 1 m/s 763 mmHg 92%
    01:00 +1°C° 0 mm 1 m/s 763 mmHg 92%
    02:00 0°C° 0 mm 1 m/s 763 mmHg 92%
    03:00 0°C° 0 mm 1 m/s 763 mmHg 93%
    04:00 0°C° 0 mm 1 m/s 763 mmHg 93%
    05:00 0°C° 0 mm 1 m/s 763 mmHg 93%
    06:00 0°C° 0 mm 1 m/s 763 mmHg 93%
    07:00 -2°C° 0 mm 2 m/s 762 mmHg 94%
    08:00 -2°C° 0 mm 2 m/s 762 mmHg 94%
    09:00 -1°C° 0.1 mm 2 m/s 762 mmHg 94%
    10:00 +1°C° 0.1 mm 2 m/s 762 mmHg 94%
    11:00 0°C° 0.1 mm 3 m/s 762 mmHg 93%
    12:00 +1°C° 0 mm 3 m/s 761 mmHg 94%
    13:00 +1°C° 0 mm 3 m/s 761 mmHg 94%
    14:00 +1°C° 0 mm 3 m/s 760 mmHg 95%
    15:00 +1°C° 0 mm 3 m/s 760 mmHg 95%
    16:00 +1°C° 0 mm 3 m/s 759 mmHg 95%
    17:00 0°C° 0 mm 3 m/s 759 mmHg 95%
    18:00 0°C° 0 mm 3 m/s 758 mmHg 95%
    19:00 +1°C° 0 mm 3 m/s 758 mmHg 95%
    20:00 +1°C° 0 mm 3 m/s 757 mmHg 95%
    21:00 +1°C° 0 mm 3 m/s 757 mmHg 95%
    22:00 0°C° 0 mm 4 m/s 756 mmHg 95%
    23:00 0°C° 0 mm 4 m/s 756 mmHg 96%
    Mostrar mais